{"data":{"norad_id":63112,"intl_designator":"2025-039J","name":"STARLINK-11590 [DTC]","alt_names":[],"object_type":"PAYLOAD","status":"ACTIVE","operator":null,"country":"US","launch_date":"2025-02-27","launch_site_code":"AFETR","launch_vehicle":null,"mission":null,"orbit_class":"UNKNOWN","rcs_meters":null,"size_class":null,"mass_kg":null,"dimensions":null,"purposes":["comms"],"wikipedia_slug":null,"has_3d_model":false,"image_url":null,"decayed_at":null,"tle_current":{"epoch":"2026-05-24T08:57:35.488224Z","epoch_age_seconds":119448,"freshness":"FRESH","line1":"1 63112U 25039J   26144.37332741  .00133275  00000+0  10257-2 0  9996","line2":"2 63112  42.9979 141.0866 0000068  57.7412 302.3462 15.70837267 71511","mean_motion":15.70837267,"eccentricity":6.8e-6,"inclination_deg":42.9979,"raan_deg":141.0866,"arg_perigee_deg":57.7412,"mean_anomaly_deg":302.3462,"bstar":0.0010257,"rev_number":7151,"period_min":91.670857971821,"perigee_km":356.45707745424,"apogee_km":356.54866855652,"semimajor_km":6734.6398730054,"source":"CELESTRAK","updated_at":"2026-05-25T13:38:19.908334Z"}}}